Time,TemperatureF,DewpointF,PressureIn,WindDirection,WindDirectionDegrees,WindSpeedMPH,WindSpeedGustMPH,Humidity,HourlyPrecipIn,Conditions,Clouds,dailyrainin,SolarRadiationWatts/m^2,SoftwareType,DateUTC
2013-03-23 00:01:00,31.4,6.9,30.21,NE,51,6.0,9.0,35,0.00,,CLR,0.00,0.00,VWS V14.01,2013-03-23 07:01:00,
2013-03-23 00:06:00,31.6,7.1,30.22,NE,51,9.0,10.0,35,0.00,,CLR,0.00,0.00,VWS V14.01,2013-03-23 07:06:00,
2013-03-23 00:11:00,31.7,7.2,30.22,NE,40,8.0,11.0,35,0.00,,CLR,0.00,0.00,VWS V14.01,2013-03-23 07:11:00,
2013-03-23 00:16:00,31.7,7.2,30.22,NE,37,8.0,10.0,35,0.00,,CLR,0.00,0.00,VWS V14.01,2013-03-23 07:16:00,
2013-03-23 00:21:00,31.5,7.0,30.22,NNE,17,7.0,8.0,35,0.00,,CLR,0.00,0.00,VWS V14.01,2013-03-23 07:21:00,
2013-03-23 00:26:00,30.6,6.8,30.22,NNE,24,5.0,6.0,36,0.00,,CLR,0.00,0.00,VWS V14.01,2013-03-23 07:26:00,
2013-03-23 00:31:00,30.0,6.3,30.23,NNE,15,4.0,5.0,36,0.00,,CLR,0.00,0.00,VWS V14.01,2013-03-23 07:31:00,
2013-03-23 00:36:00,29.8,6.7,30.23,NNE,17,3.0,4.0,37,0.00,,CLR,0.00,0.00,VWS V14.01,2013-03-23 07:36:00,
2013-03-23 00:41:00,29.7,6.6,30.23,North,9,5.0,5.0,37,0.00,,CLR,0.00,0.00,VWS V14.01,2013-03-23 07:41:00,
2013-03-23 00:46:00,29.6,6.5,30.23,NNE,25,4.0,6.0,37,0.00,,CLR,0.00,0.00,VWS V14.01,2013-03-23 07:46:00,
2013-03-23 00:51:00,29.7,7.2,30.23,NE,40,3.0,5.0,38,0.00,,CLR,0.00,0.00,VWS V14.01,2013-03-23 07:51:00,
2013-03-23 00:56:00,29.4,6.9,30.23,NNE,28,4.0,5.0,38,0.00,,CLR,0.00,0.00,VWS V14.01,2013-03-23 07:56:00,
2013-03-23 01:01:00,29.4,6.9,30.23,NNE,19,8.0,8.0,38,0.00,,CLR,0.00,0.00,VWS V14.01,2013-03-23 08:01:00,
2013-03-23 01:06:00,29.4,7.5,30.23,NNE,26,2.0,7.0,39,0.00,,CLR,0.00,0.00,VWS V14.01,2013-03-23 08:06:00,
2013-03-23 01:11:00,29.5,7.6,30.24,North,10,3.0,5.0,39,0.00,,CLR,0.00,0.00,VWS V14.01,2013-03-23 08:11:00,
2013-03-23 01:16:00,29.6,7.7,30.24,NNE,27,2.0,6.0,39,0.00,,CLR,0.00,0.00,VWS V14.01,2013-03-23 08:16:00,
2013-03-23 01:21:00,29.6,7.7,30.24,NNE,21,6.0,7.0,39,0.00,,CLR,0.00,0.00,VWS V14.01,2013-03-23 08:21:00,
2013-03-23 01:26:00,29.7,8.4,30.25,NNE,25,5.0,8.0,40,0.00,,CLR,0.00,0.00,VWS V14.01,2013-03-23 08:26:00,
2013-03-23 01:31:00,29.8,8.4,30.25,NNE,13,1.0,3.0,40,0.00,,CLR,0.00,0.00,VWS V14.01,2013-03-23 08:31:00,
2013-03-23 01:36:00,29.6,8.3,30.25,NNE,22,1.0,3.0,40,0.00,,CLR,0.00,0.00,VWS V14.01,2013-03-23 08:36:00,
2013-03-23 01:41:00,29.3,8.5,30.25,North,5,0.0,2.0,41,0.00,,CLR,0.00,0.00,VWS V14.01,2013-03-23 08:41:00,
2013-03-23 01:46:00,29.0,8.3,30.25,North,11,1.0,2.0,41,0.00,,CLR,0.00,0.00,VWS V14.01,2013-03-23 08:46:00,
2013-03-23 01:51:00,28.7,8.0,30.25,North,9,2.0,3.0,41,0.00,,CLR,0.00,0.00,VWS V14.01,2013-03-23 08:51:00,
2013-03-23 01:56:00,28.6,7.9,30.25,NNE,24,1.0,3.0,41,0.00,,CLR,0.00,0.00,VWS V14.01,2013-03-23 08:56:00,
2013-03-23 02:01:00,28.4,8.2,30.25,NNE,22,1.0,4.0,42,0.00,,CLR,0.00,0.00,VWS V14.01,2013-03-23 09:01:00,
2013-03-23 02:07:00,28.3,8.2,30.26,North,9,0.0,3.0,42,0.00,,CLR,0.00,0.00,VWS V14.01,2013-03-23 09:07:00,
2013-03-23 02:12:00,28.0,7.9,30.26,NNE,25,2.0,3.0,42,0.00,,CLR,0.00,0.00,VWS V14.01,2013-03-23 09:12:00,
2013-03-23 02:17:00,28.0,7.9,30.26,North,5,2.0,5.0,42,0.00,,CLR,0.00,0.00,VWS V14.01,2013-03-23 09:17:00,
2013-03-23 02:22:00,28.1,8.0,30.26,North,360,2.0,6.0,42,0.00,,CLR,0.00,0.00,VWS V14.01,2013-03-23 09:22:00,
2013-03-23 02:27:00,28.1,8.0,30.26,NNE,19,4.0,7.0,42,0.00,,CLR,0.00,0.00,VWS V14.01,2013-03-23 09:27:00,
2013-03-23 02:32:00,28.2,8.1,30.26,North,360,4.0,7.0,42,0.00,,CLR,0.00,0.00,VWS V14.01,2013-03-23 09:32:00,
2013-03-23 02:37:00,28.1,8.0,30.26,NNE,19,3.0,5.0,42,0.00,,CLR,0.00,0.00,VWS V14.01,2013-03-23 09:37:00,
2013-03-23 02:42:00,27.8,7.7,30.26,North,9,3.0,4.0,42,0.00,,CLR,0.00,0.00,VWS V14.01,2013-03-23 09:42:00,
2013-03-23 02:47:00,27.5,7.9,30.26,North,11,3.0,4.0,43,0.00,,CLR,0.00,0.00,VWS V14.01,2013-03-23 09:47:00,
2013-03-23 02:52:00,27.3,7.8,30.26,NNE,19,2.0,5.0,43,0.00,,CLR,0.00,0.00,VWS V14.01,2013-03-23 09:52:00,
2013-03-23 02:57:00,27.1,7.6,30.26,NNE,15,2.0,4.0,43,0.00,,CLR,0.00,0.00,VWS V14.01,2013-03-23 09:57:00,
2013-03-23 03:02:00,26.8,7.3,30.27,NNE,20,2.0,3.0,43,0.00,,CLR,0.00,0.00,VWS V14.01,2013-03-23 10:02:00,
2013-03-23 03:07:00,26.6,7.6,30.27,NNE,22,2.0,3.0,44,0.00,,CLR,0.00,0.00,VWS V14.01,2013-03-23 10:07:00,
2013-03-23 03:12:00,26.2,7.3,30.27,NNE,22,2.0,3.0,44,0.00,,CLR,0.00,0.00,VWS V14.01,2013-03-23 10:12:00,
2013-03-23 03:17:00,25.8,6.9,30.27,NNE,15,3.0,3.0,44,0.00,,CLR,0.00,0.00,VWS V14.01,2013-03-23 10:17:00,
2013-03-23 03:22:00,25.5,7.1,30.26,NNE,15,3.0,5.0,45,0.00,,CLR,0.00,0.00,VWS V14.01,2013-03-23 10:22:00,
2013-03-23 03:27:00,25.6,7.2,30.26,NNE,18,3.0,5.0,45,0.00,,CLR,0.00,0.00,VWS V14.01,2013-03-23 10:27:00,
2013-03-23 03:32:00,25.4,7.0,30.27,North,9,2.0,4.0,45,0.00,,CLR,0.00,0.00,VWS V14.01,2013-03-23 10:32:00,
2013-03-23 03:37:00,25.3,6.9,30.26,North,11,2.0,4.0,45,0.00,,CLR,0.00,0.00,VWS V14.01,2013-03-23 10:37:00,
2013-03-23 03:42:00,25.2,6.8,30.26,NNE,13,1.0,3.0,45,0.00,,CLR,0.00,0.00,VWS V14.01,2013-03-23 10:42:00,
2013-03-23 03:47:00,24.9,7.5,30.26,North,5,3.0,3.0,47,0.00,,CLR,0.00,0.00,VWS V14.01,2013-03-23 10:47:00,
2013-03-23 03:52:00,25.0,7.6,30.26,NNW,340,4.0,4.0,47,0.00,,CLR,0.00,0.00,VWS V14.01,2013-03-23 10:52:00,
2013-03-23 03:57:00,25.2,7.8,30.26,North,9,2.0,5.0,47,0.00,,CLR,0.00,0.00,VWS V14.01,2013-03-23 10:57:00,
2013-03-23 04:02:00,25.4,7.5,30.26,North,5,2.0,5.0,46,0.00,,CLR,0.00,0.00,VWS V14.01,2013-03-23 11:02:00,
2013-03-23 04:07:00,25.5,7.6,30.26,NNE,17,4.0,6.0,46,0.00,,CLR,0.00,0.00,VWS V14.01,2013-03-23 11:07:00,
2013-03-23 04:12:00,25.5,7.1,30.26,NNW,343,4.0,5.0,45,0.00,,CLR,0.00,0.00,VWS V14.01,2013-03-23 11:12:00,
2013-03-23 04:17:00,25.4,7.5,30.26,NNW,348,2.0,4.0,46,0.00,,CLR,0.00,0.00,VWS V14.01,2013-03-23 11:17:00,
2013-03-23 04:22:00,24.9,8.0,30.26,NNW,348,2.0,2.0,48,0.00,,CLR,0.00,0.00,VWS V14.01,2013-03-23 11:22:00,
2013-03-23 04:27:00,24.4,8.0,30.26,NNW,348,0.0,2.0,49,0.00,,CLR,0.00,0.00,VWS V14.01,2013-03-23 11:27:00,
2013-03-23 04:32:00,24.0,7.6,30.26,NNW,339,2.0,3.0,49,0.00,,CLR,0.00,0.00,VWS V14.01,2013-03-23 11:32:00,
2013-03-23 04:37:00,23.5,6.7,30.26,NNW,339,1.0,3.0,48,0.00,,CLR,0.00,0.00,VWS V14.01,2013-03-23 11:37:00,
2013-03-23 04:42:00,23.1,7.2,30.26,NNW,338,3.0,3.0,50,0.00,,CLR,0.00,0.00,VWS V14.01,2013-03-23 11:42:00,
2013-03-23 04:47:00,23.1,8.1,30.27,NW,325,2.0,3.0,52,0.00,,CLR,0.00,0.00,VWS V14.01,2013-03-23 11:47:00,
2013-03-23 04:52:00,23.3,8.3,30.27,NNW,336,3.0,5.0,52,0.00,,CLR,0.00,0.00,VWS V14.01,2013-03-23 11:52:00,
2013-03-23 04:57:00,23.2,6.9,30.27,NNW,335,3.0,6.0,49,0.00,,CLR,0.00,0.00,VWS V14.01,2013-03-23 11:57:00,
2013-03-23 05:02:00,22.8,6.1,30.28,NNW,338,2.0,5.0,48,0.00,,CLR,0.00,0.00,VWS V14.01,2013-03-23 12:02:00,
2013-03-23 05:07:00,22.4,5.7,30.27,NNW,332,2.0,4.0,48,0.00,,CLR,0.00,0.00,VWS V14.01,2013-03-23 12:07:00,
2013-03-23 05:12:00,22.1,5.4,30.27,NW,323,3.0,4.0,48,0.00,,CLR,0.00,0.00,VWS V14.01,2013-03-23 12:12:00,
2013-03-23 05:17:00,22.0,5.3,30.28,NW,318,0.0,2.0,48,0.00,,CLR,0.00,0.00,VWS V14.01,2013-03-23 12:17:00,
2013-03-23 05:22:00,21.9,5.2,30.27,NW,318,0.0,0.0,48,0.00,,CLR,0.00,0.00,VWS V14.01,2013-03-23 12:22:00,
2013-03-23 05:27:00,21.6,5.0,30.28,NW,318,0.0,0.0,48,0.00,,CLR,0.00,0.00,VWS V14.01,2013-03-23 12:27:00,
2013-03-23 05:32:00,21.4,5.2,30.28,NW,318,0.0,1.0,49,0.00,,CLR,0.00,0.00,VWS V14.01,2013-03-23 12:32:00,
2013-03-23 05:37:00,20.8,5.1,30.28,NW,318,1.0,1.0,50,0.00,,CLR,0.00,0.00,VWS V14.01,2013-03-23 12:37:00,
2013-03-23 05:42:00,20.6,5.3,30.28,NW,318,0.0,0.0,51,0.00,,CLR,0.00,0.00,VWS V14.01,2013-03-23 12:42:00,
2013-03-23 05:47:00,20.6,5.8,30.28,NW,318,0.0,1.0,52,0.00,,CLR,0.00,0.00,VWS V14.01,2013-03-23 12:47:00,
2013-03-23 05:52:00,20.5,5.3,30.28,NW,318,1.0,2.0,51,0.00,,CLR,0.00,0.00,VWS V14.01,2013-03-23 12:52:00,
2013-03-23 05:57:00,20.3,4.2,30.28,NW,318,1.0,1.0,49,0.00,,CLR,0.00,0.00,VWS V14.01,2013-03-23 12:57:00,
2013-03-23 06:02:00,20.0,4.4,30.29,NW,318,0.0,0.0,50,0.00,,CLR,0.00,0.00,VWS V14.01,2013-03-23 13:02:00,
2013-03-23 06:08:00,19.9,4.7,30.29,NW,318,0.0,0.0,51,0.00,,CLR,0.00,0.00,VWS V14.01,2013-03-23 13:08:00,
2013-03-23 06:13:00,19.7,4.1,30.29,NW,318,0.0,0.0,50,0.00,,CLR,0.00,0.00,VWS V14.01,2013-03-23 13:13:00,
2013-03-23 06:18:00,19.2,4.1,30.30,NW,318,0.0,0.0,51,0.00,,CLR,0.00,0.00,VWS V14.01,2013-03-23 13:18:00,
2013-03-23 06:23:00,19.1,4.4,30.30,NW,318,0.0,2.0,52,0.00,,CLR,0.00,0.00,VWS V14.01,2013-03-23 13:23:00,
2013-03-23 06:28:00,19.0,4.3,30.30,NW,318,0.0,2.0,52,0.00,,CLR,0.00,0.00,VWS V14.01,2013-03-23 13:28:00,
2013-03-23 06:33:00,18.8,4.5,30.30,NW,318,1.0,1.0,53,0.00,,CLR,0.00,0.00,VWS V14.01,2013-03-23 13:33:00,
2013-03-23 06:38:00,18.5,4.2,30.30,NW,318,0.0,2.0,53,0.00,,CLR,0.00,0.00,VWS V14.01,2013-03-23 13:38:00,
2013-03-23 06:43:00,18.3,3.6,30.30,NW,318,0.0,1.0,52,0.00,,CLR,0.00,0.00,VWS V14.01,2013-03-23 13:43:00,
2013-03-23 06:48:00,18.1,3.9,30.30,NW,318,0.0,1.0,53,0.00,,CLR,0.00,0.00,VWS V14.01,2013-03-23 13:48:00,
2013-03-23 06:53:00,18.0,3.8,30.30,NW,318,0.0,1.0,53,0.00,,CLR,0.00,0.00,VWS V14.01,2013-03-23 13:53:00,
2013-03-23 06:58:00,17.9,3.7,30.30,NW,318,2.0,2.0,53,0.00,,CLR,0.00,7.00,VWS V14.01,2013-03-23 13:58:00,
2013-03-23 07:03:00,17.7,3.5,30.31,NW,318,1.0,2.0,53,0.00,,CLR,0.00,11.00,VWS V14.01,2013-03-23 14:03:00,
2013-03-23 07:08:00,17.6,3.4,30.31,NW,318,0.0,0.0,53,0.00,,CLR,0.00,12.00,VWS V14.01,2013-03-23 14:08:00,
2013-03-23 07:13:00,17.6,3.4,30.31,NW,318,0.0,0.0,53,0.00,,CLR,0.00,18.00,VWS V14.01,2013-03-23 14:13:00,
2013-03-23 07:18:00,17.4,3.2,30.32,NW,318,0.0,0.0,53,0.00,,CLR,0.00,23.00,VWS V14.01,2013-03-23 14:18:00,
2013-03-23 07:23:00,17.5,3.3,30.32,NW,318,0.0,0.0,53,0.00,,CLR,0.00,32.00,VWS V14.01,2013-03-23 14:23:00,
2013-03-23 07:28:00,17.6,3.8,30.32,NW,318,0.0,0.0,54,0.00,,CLR,0.00,42.00,VWS V14.01,2013-03-23 14:28:00,
2013-03-23 07:33:00,17.9,4.1,30.33,NW,318,0.0,0.0,54,0.00,,CLR,0.00,53.00,VWS V14.01,2013-03-23 14:33:00,
2013-03-23 07:38:00,18.3,4.4,30.32,NW,318,0.0,0.0,54,0.00,,CLR,0.00,67.00,VWS V14.01,2013-03-23 14:38:00,
2013-03-23 07:43:00,18.6,4.7,30.32,NW,318,0.0,0.0,54,0.00,,CLR,0.00,83.00,VWS V14.01,2013-03-23 14:43:00,
2013-03-23 07:48:00,19.3,5.8,30.32,NW,318,0.0,0.0,55,0.00,,CLR,0.00,95.00,VWS V14.01,2013-03-23 14:48:00,
2013-03-23 07:53:00,20.2,6.2,30.32,NW,318,0.0,0.0,54,0.00,,CLR,0.00,113.00,VWS V14.01,2013-03-23 14:53:00,
2013-03-23 07:58:00,21.8,6.9,30.32,NW,318,0.0,0.0,52,0.00,,CLR,0.00,130.00,VWS V14.01,2013-03-23 14:58:00,
2013-03-23 08:03:00,23.0,7.1,30.33,NW,318,0.0,1.0,50,0.00,,CLR,0.00,148.00,VWS V14.01,2013-03-23 15:03:00,
2013-03-23 08:08:00,24.4,7.5,30.33,NW,318,0.0,2.0,48,0.00,,CLR,0.00,167.00,VWS V14.01,2013-03-23 15:08:00,
2013-03-23 08:13:00,25.7,8.3,30.32,NW,318,0.0,1.0,47,0.00,,CLR,0.00,185.00,VWS V14.01,2013-03-23 15:13:00,
2013-03-23 08:18:00,26.5,8.0,30.33,NW,318,0.0,1.0,45,0.00,,CLR,0.00,204.00,VWS V14.01,2013-03-23 15:18:00,
2013-03-23 08:23:00,27.2,8.2,30.33,NW,318,0.0,1.0,44,0.00,,CLR,0.00,221.00,VWS V14.01,2013-03-23 15:23:00,
2013-03-23 08:28:00,27.8,8.2,30.33,NW,318,0.0,2.0,43,0.00,,CLR,0.00,237.00,VWS V14.01,2013-03-23 15:28:00,
2013-03-23 08:33:00,28.6,8.9,30.33,NW,318,0.0,1.0,43,0.00,,CLR,0.00,251.00,VWS V14.01,2013-03-23 15:33:00,
2013-03-23 08:38:00,29.1,8.9,30.32,NW,318,0.0,1.0,42,0.00,,CLR,0.00,271.00,VWS V14.01,2013-03-23 15:38:00,
2013-03-23 08:43:00,29.6,9.3,30.32,NW,318,0.0,0.0,42,0.00,,CLR,0.00,287.00,VWS V14.01,2013-03-23 15:43:00,
2013-03-23 08:48:00,30.2,9.4,30.32,NW,319,0.0,1.0,41,0.00,,CLR,0.00,294.00,VWS V14.01,2013-03-23 15:48:00,
2013-03-23 08:53:00,31.0,9.5,30.32,NW,319,0.0,0.0,40,0.00,,CLR,0.00,318.00,VWS V14.01,2013-03-23 15:53:00,
2013-03-23 08:58:00,31.6,9.5,30.32,NW,319,0.0,1.0,39,0.00,,CLR,0.00,336.00,VWS V14.01,2013-03-23 15:58:00,
2013-03-23 09:03:00,31.9,9.8,30.32,NNE,30,0.0,3.0,39,0.00,,CLR,0.00,352.00,VWS V14.01,2013-03-23 16:03:00,
2013-03-23 09:08:00,32.0,9.3,30.32,NNE,15,1.0,5.0,38,0.00,,CLR,0.00,369.00,VWS V14.01,2013-03-23 16:08:00,
2013-03-23 09:13:00,32.2,9.5,30.32,ENE,57,5.0,5.0,38,0.00,,CLR,0.00,381.00,VWS V14.01,2013-03-23 16:13:00,
2013-03-23 09:18:00,32.3,9.6,30.32,ENE,78,3.0,5.0,38,0.00,,CLR,0.00,394.00,VWS V14.01,2013-03-23 16:18:00,
2013-03-23 09:24:00,32.8,10.0,30.32,ENE,65,3.0,5.0,38,0.00,,CLR,0.00,413.00,VWS V14.01,2013-03-23 16:24:00,
2013-03-23 09:29:00,33.0,9.0,30.32,NE,43,1.0,5.0,36,0.00,,CLR,0.00,429.00,VWS V14.01,2013-03-23 16:29:00,
2013-03-23 09:34:00,33.3,9.2,30.32,NE,49,0.0,6.0,36,0.00,,CLR,0.00,441.00,VWS V14.01,2013-03-23 16:34:00,
2013-03-23 09:39:00,33.6,9.5,30.32,NE,56,4.0,5.0,36,0.00,,CLR,0.00,459.00,VWS V14.01,2013-03-23 16:39:00,
2013-03-23 09:44:00,34.2,10.1,30.32,ENE,63,0.0,3.0,36,0.00,,CLR,0.00,471.00,VWS V14.01,2013-03-23 16:44:00,
2013-03-23 09:49:00,34.8,9.3,30.32,NNE,27,0.0,4.0,34,0.00,,CLR,0.00,489.00,VWS V14.01,2013-03-23 16:49:00,
2013-03-23 09:54:00,35.4,9.8,30.32,SE,126,3.0,5.0,34,0.00,,CLR,0.00,504.00,VWS V14.01,2013-03-23 16:54:00,
2013-03-23 09:59:00,35.7,9.4,30.32,ESE,122,2.0,4.0,33,0.00,,CLR,0.00,519.00,VWS V14.01,2013-03-23 16:59:00,
2013-03-23 10:04:00,36.1,9.1,30.31,NE,35,0.0,5.0,32,0.00,,SCT240,0.00,526.00,VWS V14.01,2013-03-23 17:04:00,
2013-03-23 10:09:00,35.9,8.9,30.31,ENE,71,1.0,6.0,32,0.00,,SCT240,0.00,543.00,VWS V14.01,2013-03-23 17:09:00,
2013-03-23 10:14:00,35.9,8.9,30.32,NE,43,0.0,3.0,32,0.00,,SCT240,0.00,559.00,VWS V14.01,2013-03-23 17:14:00,
2013-03-23 10:19:00,36.1,9.1,30.31,NNW,337,1.0,5.0,32,0.00,,SCT240,0.00,559.00,VWS V14.01,2013-03-23 17:19:00,
2013-03-23 10:24:00,36.9,9.8,30.31,ENE,66,4.0,4.0,32,0.00,,SCT240,0.00,587.00,VWS V14.01,2013-03-23 17:24:00,
2013-03-23 10:29:00,37.4,8.8,30.31,ESE,115,4.0,8.0,30,0.00,,SCT240,0.00,603.00,VWS V14.01,2013-03-23 17:29:00,
2013-03-23 10:34:00,37.9,9.2,30.31,East,92,0.0,5.0,30,0.00,,SCT240,0.00,622.00,VWS V14.01,2013-03-23 17:34:00,
2013-03-23 10:39:00,38.1,8.7,30.31,SW,215,0.0,3.0,29,0.00,,SCT240,0.00,601.00,VWS V14.01,2013-03-23 17:39:00,
2013-03-23 10:44:00,38.6,9.1,30.31,SE,134,4.0,7.0,29,0.00,,SCT240,0.00,633.00,VWS V14.01,2013-03-23 17:44:00,
2013-03-23 10:49:00,39.0,9.4,30.30,SE,145,0.0,5.0,29,0.00,,SCT240,0.00,643.00,VWS V14.01,2013-03-23 17:49:00,
2013-03-23 10:54:00,39.6,9.2,30.30,ESE,111,3.0,5.0,28,0.00,,SCT240,0.00,652.00,VWS V14.01,2013-03-23 17:54:00,
2013-03-23 10:59:00,40.2,8.9,30.30,ESE,109,5.0,5.0,27,0.00,,SCT240,0.00,661.00,VWS V14.01,2013-03-23 17:59:00,
2013-03-23 11:04:00,40.0,9.5,30.30,East,94,0.0,3.0,28,0.00,,SCT240,0.00,671.00,VWS V14.01,2013-03-23 18:04:00,
2013-03-23 11:09:00,40.3,9.0,30.30,North,9,3.0,3.0,27,0.00,,SCT240,0.00,682.00,VWS V14.01,2013-03-23 18:09:00,
2013-03-23 11:14:00,40.4,9.1,30.30,SSE,147,2.0,4.0,27,0.00,,SCT240,0.00,689.00,VWS V14.01,2013-03-23 18:14:00,
2013-03-23 11:19:00,40.2,8.9,30.30,South,185,3.0,5.0,27,0.00,,SCT240,0.00,698.00,VWS V14.01,2013-03-23 18:19:00,
2013-03-23 11:24:00,40.4,9.1,30.30,East,79,1.0,5.0,27,0.00,,SCT240,0.00,707.00,VWS V14.01,2013-03-23 18:24:00,
2013-03-23 11:29:00,40.9,9.5,30.29,East,80,2.0,8.0,27,0.00,,SCT240,0.00,714.00,VWS V14.01,2013-03-23 18:29:00,
2013-03-23 11:34:00,41.2,9.8,30.29,ESE,113,0.0,7.0,27,0.00,,SCT240,0.00,721.00,VWS V14.01,2013-03-23 18:34:00,
2013-03-23 11:39:00,41.3,9.9,30.29,SE,146,0.0,5.0,27,0.00,,SCT240,0.00,731.00,VWS V14.01,2013-03-23 18:39:00,
2013-03-23 11:44:00,42.0,9.6,30.28,NE,40,3.0,7.0,26,0.00,,SCT240,0.00,738.00,VWS V14.01,2013-03-23 18:44:00,
2013-03-23 11:49:00,40.7,9.3,30.28,NW,306,0.0,9.0,27,0.00,,SCT240,0.00,742.00,VWS V14.01,2013-03-23 18:49:00,
2013-03-23 11:54:00,41.5,9.2,30.27,SSE,152,0.0,6.0,26,0.00,,SCT240,0.00,747.00,VWS V14.01,2013-03-23 18:54:00,
2013-03-23 11:59:00,42.7,10.2,30.27,East,82,2.0,5.0,26,0.00,,SCT240,0.00,758.00,VWS V14.01,2013-03-23 18:59:00,
2013-03-23 12:04:00,42.7,9.3,30.27,NE,41,2.0,5.0,25,0.00,,FEW220,0.00,759.00,VWS V14.01,2013-03-23 19:04:00,
2013-03-23 12:09:00,42.2,9.8,30.27,East,89,3.0,6.0,26,0.00,,FEW220,0.00,765.00,VWS V14.01,2013-03-23 19:09:00,
2013-03-23 12:14:00,42.9,9.5,30.27,ESE,120,2.0,7.0,25,0.00,,FEW220,0.00,770.00,VWS V14.01,2013-03-23 19:14:00,
2013-03-23 12:19:00,43.4,9.9,30.26,SSE,155,2.0,8.0,25,0.00,,FEW220,0.00,777.00,VWS V14.01,2013-03-23 19:19:00,
2013-03-23 12:24:00,43.4,9.0,30.26,South,176,0.0,5.0,24,0.00,,FEW220,0.00,779.00,VWS V14.01,2013-03-23 19:24:00,
2013-03-23 12:29:00,43.8,9.4,30.26,SW,221,3.0,4.0,24,0.00,,FEW220,0.00,780.00,VWS V14.01,2013-03-23 19:29:00,
2013-03-23 12:35:00,44.4,9.9,30.26,NE,49,2.0,5.0,24,0.00,,FEW220,0.00,786.00,VWS V14.01,2013-03-23 19:35:00,
2013-03-23 12:40:00,45.1,9.5,30.26,NNW,344,0.0,4.0,23,0.00,,FEW220,0.00,786.00,VWS V14.01,2013-03-23 19:40:00,
2013-03-23 12:45:00,43.9,9.5,30.26,NNE,31,1.0,6.0,24,0.00,,FEW220,0.00,784.00,VWS V14.01,2013-03-23 19:45:00,
2013-03-23 12:50:00,43.9,9.5,30.26,NNW,346,3.0,5.0,24,0.00,,FEW220,0.00,789.00,VWS V14.01,2013-03-23 19:50:00,
2013-03-23 12:55:00,44.1,9.6,30.26,NE,47,3.0,9.0,24,0.00,,FEW220,0.00,789.00,VWS V14.01,2013-03-23 19:55:00,
2013-03-23 13:00:00,43.7,9.3,30.25,NNW,348,3.0,8.0,24,0.00,,FEW220,0.00,791.00,VWS V14.01,2013-03-23 20:00:00,
2013-03-23 13:05:00,43.7,8.3,30.24,North,5,3.0,7.0,23,0.00,,FEW220,0.00,793.00,VWS V14.01,2013-03-23 20:05:00,
2013-03-23 13:10:00,45.0,10.4,30.23,West,261,1.0,4.0,24,0.00,,FEW220,0.00,795.00,VWS V14.01,2013-03-23 20:10:00,
2013-03-23 13:15:00,46.4,9.6,30.23,ENE,69,8.0,10.0,22,0.00,,FEW220,0.00,795.00,VWS V14.01,2013-03-23 20:15:00,
2013-03-23 13:20:00,45.7,9.1,30.23,ENE,69,3.0,11.0,22,0.00,,FEW220,0.00,795.00,VWS V14.01,2013-03-23 20:20:00,
2013-03-23 13:25:00,45.6,9.0,30.23,SSW,212,3.0,5.0,22,0.00,,FEW220,0.00,793.00,VWS V14.01,2013-03-23 20:25:00,
2013-03-23 13:30:00,46.0,9.3,30.23,NNW,345,3.0,7.0,22,0.00,,FEW220,0.00,791.00,VWS V14.01,2013-03-23 20:30:00,
2013-03-23 13:35:00,46.0,9.3,30.22,SSE,153,0.0,5.0,22,0.00,,FEW220,0.00,789.00,VWS V14.01,2013-03-23 20:35:00,
2013-03-23 13:40:00,47.0,9.1,30.22,East,96,5.0,7.0,21,0.00,,FEW220,0.00,770.00,VWS V14.01,2013-03-23 20:40:00,
2013-03-23 13:45:00,47.5,8.4,30.22,SSE,161,3.0,10.0,20,0.00,,FEW220,0.00,784.00,VWS V14.01,2013-03-23 20:45:00,
2013-03-23 13:50:00,47.6,8.5,30.21,NE,35,7.0,9.0,20,0.00,,FEW220,0.00,759.00,VWS V14.01,2013-03-23 20:50:00,
2013-03-23 13:55:00,46.9,9.0,30.21,East,96,1.0,8.0,21,0.00,,FEW220,0.00,775.00,VWS V14.01,2013-03-23 20:55:00,
2013-03-23 14:00:00,47.5,8.4,30.21,South,176,6.0,7.0,20,0.00,,FEW220,0.00,763.00,VWS V14.01,2013-03-23 21:00:00,
2013-03-23 14:05:00,47.3,8.3,30.20,South,177,1.0,6.0,20,0.00,,FEW220,0.00,773.00,VWS V14.01,2013-03-23 21:05:00,
2013-03-23 14:10:00,47.4,8.4,30.20,SSE,165,2.0,6.0,20,0.00,,FEW220,0.00,689.00,VWS V14.01,2013-03-23 21:10:00,
2013-03-23 14:15:00,48.1,8.9,30.20,ESE,104,7.0,10.0,20,0.00,,SCT220,0.00,780.00,VWS V14.01,2013-03-23 21:15:00,
2013-03-23 14:20:00,48.6,7.0,30.20,NE,43,3.0,8.0,18,0.00,,SCT220,0.00,765.00,VWS V14.01,2013-03-23 21:20:00,
2013-03-23 14:25:00,47.3,7.1,30.20,NNW,333,3.0,7.0,19,0.00,,SCT220,0.00,657.00,VWS V14.01,2013-03-23 21:25:00,
2013-03-23 14:30:00,46.9,6.8,30.19,NNW,347,4.0,5.0,19,0.00,,SCT220,0.00,754.00,VWS V14.01,2013-03-23 21:30:00,
2013-03-23 14:35:00,47.4,7.2,30.19,NW,321,0.0,0.0,19,0.00,,SCT220,0.00,693.00,VWS V14.01,2013-03-23 21:35:00,
2013-03-23 14:40:00,48.6,7.0,30.19,ENE,57,3.0,4.0,18,0.00,,SCT220,0.00,733.00,VWS V14.01,2013-03-23 21:40:00,
2013-03-23 14:45:00,48.9,7.3,30.18,ENE,58,4.0,4.0,18,0.00,,SCT220,0.00,721.00,VWS V14.01,2013-03-23 21:45:00,
2013-03-23 14:50:00,48.3,8.0,30.18,NNE,32,3.0,3.0,19,0.00,,SCT220,0.00,712.00,VWS V14.01,2013-03-23 21:50:00,
2013-03-23 14:55:00,48.1,7.8,30.18,SW,220,1.0,3.0,19,0.00,,SCT220,0.00,705.00,VWS V14.01,2013-03-23 21:55:00,
2013-03-23 15:00:00,49.5,7.8,30.18,South,188,1.0,1.0,18,0.00,,SCT240,0.00,694.00,VWS V14.01,2013-03-23 22:00:00,
2013-03-23 15:05:00,50.5,7.3,30.17,SE,126,3.0,3.0,17,0.00,,SCT240,0.00,687.00,VWS V14.01,2013-03-23 22:05:00,
2013-03-23 15:10:00,50.9,7.7,30.17,NE,50,4.0,4.0,17,0.00,,SCT240,0.00,673.00,VWS V14.01,2013-03-23 22:10:00,
2013-03-23 15:15:00,50.6,7.4,30.17,ESE,110,1.0,1.0,17,0.00,,SCT240,0.00,661.00,VWS V14.01,2013-03-23 22:15:00,
2013-03-23 15:20:00,51.1,7.8,30.16,ESE,113,0.0,0.0,17,0.00,,SCT240,0.00,652.00,VWS V14.01,2013-03-23 22:20:00,
2013-03-23 15:25:00,50.2,7.1,30.17,NNE,28,7.0,7.0,17,0.00,,SCT240,0.00,642.00,VWS V14.01,2013-03-23 22:25:00,
2013-03-23 15:30:00,49.9,6.8,30.16,NE,48,3.0,4.0,17,0.00,,SCT240,0.00,633.00,VWS V14.01,2013-03-23 22:30:00,
2013-03-23 15:35:00,49.4,5.1,30.16,North,350,1.0,1.0,16,0.00,,SCT240,0.00,619.00,VWS V14.01,2013-03-23 22:35:00,
2013-03-23 15:40:00,49.3,6.3,30.16,NW,312,1.0,1.0,17,0.00,,SCT240,0.00,608.00,VWS V14.01,2013-03-23 22:40:00,
2013-03-23 15:45:00,49.8,6.8,30.16,NNE,15,7.0,9.0,17,0.00,,SCT240,0.00,594.00,VWS V14.01,2013-03-23 22:45:00,
2013-03-23 15:50:00,50.4,7.2,30.16,ENE,77,3.0,3.0,17,0.00,,SCT240,0.00,580.00,VWS V14.01,2013-03-23 22:50:00,
2013-03-23 15:55:00,51.1,6.5,30.16,NNW,333,2.0,3.0,16,0.00,,SCT240,0.00,568.00,VWS V14.01,2013-03-23 22:55:00,
2013-03-23 16:00:00,51.5,6.8,30.16,West,278,0.0,0.0,16,0.00,,SCT240,0.00,552.00,VWS V14.01,2013-03-23 23:00:00,
2013-03-23 16:05:00,51.4,5.3,30.16,NE,44,4.0,6.0,15,0.00,,SCT240,0.00,541.00,VWS V14.01,2013-03-23 23:05:00,
2013-03-23 16:10:00,51.2,6.6,30.15,NE,36,5.0,6.0,16,0.00,,SCT240,0.00,522.00,VWS V14.01,2013-03-23 23:10:00,
2013-03-23 16:15:00,50.7,4.8,30.15,North,351,6.0,6.0,15,0.00,,SCT240,0.00,515.00,VWS V14.01,2013-03-23 23:15:00,
2013-03-23 16:20:00,49.9,5.5,30.15,NNE,13,4.0,5.0,16,0.00,,SCT240,0.00,501.00,VWS V14.01,2013-03-23 23:20:00,
2013-03-23 16:25:00,49.5,5.2,30.15,NW,324,3.0,3.0,16,0.00,,SCT240,0.00,485.00,VWS V14.01,2013-03-23 23:25:00,
2013-03-23 16:30:00,50.2,5.8,30.15,NNW,347,3.0,3.0,16,0.00,,SCT240,0.00,469.00,VWS V14.01,2013-03-23 23:30:00,
2013-03-23 16:35:00,50.7,6.2,30.15,East,92,5.0,5.0,16,0.00,,SCT240,0.00,455.00,VWS V14.01,2013-03-23 23:35:00,
2013-03-23 16:40:00,50.7,4.8,30.14,ENE,70,8.0,10.0,15,0.00,,SCT240,0.00,441.00,VWS V14.01,2013-03-23 23:40:00,
2013-03-23 16:45:00,50.5,6.0,30.15,East,82,2.0,2.0,16,0.00,,SCT240,0.00,427.00,VWS V14.01,2013-03-23 23:45:00,
2013-03-23 16:50:00,51.0,5.0,30.14,East,92,0.0,2.0,15,0.00,,SCT240,0.00,410.00,VWS V14.01,2013-03-23 23:50:00,
2013-03-23 16:55:00,51.2,5.2,30.14,ENE,61,3.0,5.0,15,0.00,,SCT240,0.00,396.00,VWS V14.01,2013-03-23 23:55:00,
2013-03-23 17:00:00,50.8,4.8,30.14,ENE,69,3.0,4.0,15,0.00,,SCT240,0.00,380.00,VWS V14.01,2013-03-24 00:00:00,
2013-03-23 17:06:00,50.9,4.9,30.14,ENE,63,1.0,7.0,15,0.00,,SCT240,0.00,357.00,VWS V14.01,2013-03-24 00:06:00,
2013-03-23 17:11:00,50.6,4.7,30.14,East,86,2.0,3.0,15,0.00,,SCT240,0.00,348.00,VWS V14.01,2013-03-24 00:11:00,
2013-03-23 17:16:00,50.6,4.7,30.13,East,96,2.0,3.0,15,0.00,,SCT240,0.00,330.00,VWS V14.01,2013-03-24 00:16:00,
2013-03-23 17:21:00,50.5,4.6,30.13,ENE,65,0.0,1.0,15,0.00,,SCT240,0.00,315.00,VWS V14.01,2013-03-24 00:21:00,
2013-03-23 17:26:00,50.7,4.8,30.13,ENE,60,0.0,4.0,15,0.00,,SCT240,0.00,299.00,VWS V14.01,2013-03-24 00:26:00,
2013-03-23 17:31:00,50.5,4.6,30.13,NE,46,4.0,8.0,15,0.00,,SCT240,0.00,283.00,VWS V14.01,2013-03-24 00:31:00,
2013-03-23 17:36:00,50.2,4.3,30.13,ENE,62,1.0,4.0,15,0.00,,SCT240,0.00,264.00,VWS V14.01,2013-03-24 00:36:00,
2013-03-23 17:41:00,50.0,4.2,30.14,NE,52,4.0,6.0,15,0.00,,SCT240,0.00,246.00,VWS V14.01,2013-03-24 00:41:00,
2013-03-23 17:46:00,49.8,5.4,30.14,East,80,0.0,3.0,16,0.00,,SCT240,0.00,227.00,VWS V14.01,2013-03-24 00:46:00,
2013-03-23 17:51:00,49.9,5.5,30.14,NE,36,2.0,6.0,16,0.00,,SCT240,0.00,193.00,VWS V14.01,2013-03-24 00:51:00,
2013-03-23 17:56:00,49.9,5.5,30.14,East,86,3.0,5.0,16,0.00,,SCT240,0.00,193.00,VWS V14.01,2013-03-24 00:56:00,
2013-03-23 18:01:00,49.7,5.3,30.14,NE,48,4.0,7.0,16,0.00,,BKN240,0.00,181.00,VWS V14.01,2013-03-24 01:01:00,
2013-03-23 18:06:00,49.5,5.2,30.14,North,10,1.0,4.0,16,0.00,,BKN240,0.00,151.00,VWS V14.01,2013-03-24 01:06:00,
2013-03-23 18:12:00,49.5,5.2,30.14,NE,36,3.0,4.0,16,0.00,,BKN240,0.00,132.00,VWS V14.01,2013-03-24 01:12:00,
2013-03-23 18:17:00,49.3,5.0,30.14,NE,46,5.0,9.0,16,0.00,,BKN240,0.00,120.00,VWS V14.01,2013-03-24 01:17:00,
2013-03-23 18:22:00,49.1,4.9,30.14,ENE,71,5.0,5.0,16,0.00,,BKN240,0.00,102.00,VWS V14.01,2013-03-24 01:22:00,
2013-03-23 18:27:00,49.0,4.8,30.14,NE,46,5.0,5.0,16,0.00,,BKN240,0.00,84.00,VWS V14.01,2013-03-24 01:27:00,
2013-03-23 18:32:00,48.7,4.5,30.14,ENE,69,2.0,4.0,16,0.00,,BKN240,0.00,67.00,VWS V14.01,2013-03-24 01:32:00,
2013-03-23 18:37:00,48.7,4.5,30.14,ENE,60,3.0,5.0,16,0.00,,BKN240,0.00,49.00,VWS V14.01,2013-03-24 01:37:00,
2013-03-23 18:42:00,48.5,4.4,30.14,ENE,58,5.0,6.0,16,0.00,,BKN240,0.00,35.00,VWS V14.01,2013-03-24 01:42:00,
2013-03-23 18:47:00,48.3,4.2,30.14,NE,38,2.0,5.0,16,0.00,,BKN240,0.00,26.00,VWS V14.01,2013-03-24 01:47:00,
2013-03-23 18:52:00,47.9,3.9,30.14,ENE,71,3.0,8.0,16,0.00,,BKN240,0.00,16.00,VWS V14.01,2013-03-24 01:52:00,
2013-03-23 18:57:00,47.7,3.7,30.14,NE,51,2.0,9.0,16,0.00,,BKN240,0.00,12.00,VWS V14.01,2013-03-24 01:57:00,
2013-03-23 19:02:00,47.4,3.5,30.14,ENE,61,2.0,4.0,16,0.00,,CLR,0.00,9.00,VWS V14.01,2013-03-24 02:02:00,
2013-03-23 19:07:00,47.1,3.2,30.15,ENE,58,4.0,4.0,16,0.00,,CLR,0.00,7.00,VWS V14.01,2013-03-24 02:07:00,
2013-03-23 19:12:00,46.8,3.0,30.14,ENE,61,2.0,5.0,16,0.00,,CLR,0.00,0.00,VWS V14.01,2013-03-24 02:12:00,
2013-03-23 19:17:00,46.4,2.7,30.15,ENE,58,4.0,5.0,16,0.00,,CLR,0.00,0.00,VWS V14.01,2013-03-24 02:17:00,
2013-03-23 19:22:00,46.0,2.3,30.15,NE,51,2.0,3.0,16,0.00,,CLR,0.00,0.00,VWS V14.01,2013-03-24 02:22:00,
2013-03-23 19:27:00,45.6,3.3,30.15,NE,51,2.0,3.0,17,0.00,,CLR,0.00,0.00,VWS V14.01,2013-03-24 02:27:00,
2013-03-23 19:32:00,45.1,2.9,30.16,NE,51,2.0,2.0,17,0.00,,CLR,0.00,0.00,VWS V14.01,2013-03-24 02:32:00,
2013-03-23 19:37:00,44.8,2.7,30.16,ENE,57,2.0,2.0,17,0.00,,CLR,0.00,0.00,VWS V14.01,2013-03-24 02:37:00,
2013-03-23 19:42:00,44.5,2.4,30.16,ENE,57,1.0,1.0,17,0.00,,CLR,0.00,0.00,VWS V14.01,2013-03-24 02:42:00,
2013-03-23 19:47:00,44.1,2.1,30.16,ENE,57,1.0,2.0,17,0.00,,CLR,0.00,0.00,VWS V14.01,2013-03-24 02:47:00,
2013-03-23 19:52:00,43.8,1.8,30.16,ENE,57,0.0,2.0,17,0.00,,CLR,0.00,0.00,VWS V14.01,2013-03-24 02:52:00,
2013-03-23 19:57:00,43.5,2.8,30.16,ENE,57,0.0,1.0,18,0.00,,CLR,0.00,0.00,VWS V14.01,2013-03-24 02:57:00,
2013-03-23 20:02:00,43.4,2.7,30.16,ENE,57,0.0,1.0,18,0.00,,CLR,0.00,0.00,VWS V14.01,2013-03-24 03:02:00,
2013-03-23 20:07:00,43.3,2.7,30.16,ENE,57,0.0,0.0,18,0.00,,CLR,0.00,0.00,VWS V14.01,2013-03-24 03:07:00,
2013-03-23 20:12:00,43.2,2.6,30.16,ENE,57,0.0,0.0,18,0.00,,CLR,0.00,0.00,VWS V14.01,2013-03-24 03:12:00,
2013-03-23 20:17:00,42.9,2.3,30.16,ENE,57,0.0,0.0,18,0.00,,CLR,0.00,0.00,VWS V14.01,2013-03-24 03:17:00,
2013-03-23 20:22:00,42.7,2.2,30.16,ENE,57,0.0,0.0,18,0.00,,CLR,0.00,0.00,VWS V14.01,2013-03-24 03:22:00,
2013-03-23 20:27:00,42.2,1.8,30.17,ENE,57,0.0,0.0,18,0.00,,CLR,0.00,0.00,VWS V14.01,2013-03-24 03:27:00,
2013-03-23 20:32:00,41.9,2.7,30.17,ENE,57,0.0,0.0,19,0.00,,CLR,0.00,0.00,VWS V14.01,2013-03-24 03:32:00,
2013-03-23 20:37:00,41.5,3.4,30.17,ENE,57,0.0,0.0,20,0.00,,CLR,0.00,0.00,VWS V14.01,2013-03-24 03:37:00,
2013-03-23 20:42:00,41.0,1.9,30.17,ENE,57,0.0,0.0,19,0.00,,CLR,0.00,0.00,VWS V14.01,2013-03-24 03:42:00,
2013-03-23 20:48:00,40.5,2.6,30.17,ENE,57,0.0,0.0,20,0.00,,CLR,0.00,0.00,VWS V14.01,2013-03-24 03:48:00,
2013-03-23 20:53:00,39.8,3.1,30.17,ENE,57,0.0,0.0,21,0.00,,CLR,0.00,0.00,VWS V14.01,2013-03-24 03:53:00,
2013-03-23 20:58:00,38.9,2.3,30.17,ENE,57,0.0,1.0,21,0.00,,CLR,0.00,0.00,VWS V14.01,2013-03-24 03:58:00,
2013-03-23 21:00:00,38.6,2.0,30.17,ENE,57,0.0,1.0,21,0.00,,CLR,0.00,0.00,VWS V14.01,2013-03-24 04:00:00,
2013-03-23 21:05:00,38.3,3.8,30.17,ENE,57,0.0,0.0,23,0.00,,CLR,0.00,0.00,VWS V14.01,2013-03-24 04:05:00,
2013-03-23 21:10:00,38.2,3.7,30.17,ENE,57,0.0,0.0,23,0.00,,CLR,0.00,0.00,VWS V14.01,2013-03-24 04:10:00,
2013-03-23 21:15:00,38.2,3.7,30.17,ENE,57,1.0,1.0,23,0.00,,CLR,0.00,0.00,VWS V14.01,2013-03-24 04:15:00,
2013-03-23 21:20:00,37.9,2.5,30.17,NE,50,1.0,1.0,22,0.00,,CLR,0.00,0.00,VWS V14.01,2013-03-24 04:20:00,
2013-03-23 21:25:00,37.6,3.2,30.18,NE,50,1.0,1.0,23,0.00,,CLR,0.00,0.00,VWS V14.01,2013-03-24 04:25:00,
2013-03-23 21:30:00,37.3,2.9,30.18,North,360,0.0,0.0,23,0.00,,CLR,0.00,0.00,VWS V14.01,2013-03-24 04:30:00,
2013-03-23 21:35:00,37.1,3.7,30.18,North,360,0.0,0.0,24,0.00,,CLR,0.00,0.00,VWS V14.01,2013-03-24 04:35:00,
2013-03-23 21:40:00,37.0,3.6,30.18,North,360,0.0,0.0,24,0.00,,CLR,0.00,0.00,VWS V14.01,2013-03-24 04:40:00,
2013-03-23 21:45:00,36.6,3.2,30.18,North,360,0.0,1.0,24,0.00,,CLR,0.00,0.00,VWS V14.01,2013-03-24 04:45:00,
2013-03-23 21:50:00,36.4,3.1,30.18,North,360,0.0,0.0,24,0.00,,CLR,0.00,0.00,VWS V14.01,2013-03-24 04:50:00,
2013-03-23 21:55:00,36.2,3.8,30.18,North,360,0.0,1.0,25,0.00,,CLR,0.00,0.00,VWS V14.01,2013-03-24 04:55:00,
2013-03-23 22:00:00,36.0,3.6,30.18,North,360,0.0,0.0,25,0.00,,CLR,0.00,0.00,VWS V14.01,2013-03-24 05:00:00,
2013-03-23 22:05:00,35.9,3.5,30.18,North,360,0.0,1.0,25,0.00,,CLR,0.00,0.00,VWS V14.01,2013-03-24 05:05:00,
2013-03-23 22:10:00,35.7,3.3,30.18,North,360,0.0,0.0,25,0.00,,CLR,0.00,0.00,VWS V14.01,2013-03-24 05:10:00,
2013-03-23 22:15:00,35.5,2.3,30.18,North,360,1.0,2.0,24,0.00,,CLR,0.00,0.00,VWS V14.01,2013-03-24 05:15:00,
2013-03-23 22:20:00,35.2,2.0,30.18,WNW,298,0.0,1.0,24,0.00,,CLR,0.00,0.00,VWS V14.01,2013-03-24 05:20:00,
2013-03-23 22:26:00,34.9,2.7,30.18,WNW,298,0.0,1.0,25,0.00,,CLR,0.00,0.00,VWS V14.01,2013-03-24 05:26:00,
2013-03-23 22:31:00,34.7,3.3,30.18,WNW,298,1.0,1.0,26,0.00,,CLR,0.00,0.00,VWS V14.01,2013-03-24 05:31:00,
2013-03-23 22:35:00,34.5,3.2,30.18,WNW,298,0.0,0.0,26,0.00,,CLR,0.00,0.00,VWS V14.01,2013-03-24 05:35:00,
2013-03-23 22:41:00,34.2,2.9,30.19,WNW,298,0.0,0.0,26,0.00,,CLR,0.00,0.00,VWS V14.01,2013-03-24 05:41:00,
2013-03-23 22:46:00,33.9,3.5,30.19,WNW,298,0.0,0.0,27,0.00,,CLR,0.00,0.00,VWS V14.01,2013-03-24 05:46:00,
2013-03-23 22:51:00,33.5,3.1,30.19,SW,229,0.0,0.0,27,0.00,,CLR,0.00,0.00,VWS V14.01,2013-03-24 05:51:00,
2013-03-23 22:56:00,33.4,3.0,30.19,SW,229,0.0,0.0,27,0.00,,CLR,0.00,0.00,VWS V14.01,2013-03-24 05:56:00,
2013-03-23 23:01:00,33.2,2.8,30.19,SW,229,0.0,0.0,27,0.00,,CLR,0.00,0.00,VWS V14.01,2013-03-24 06:01:00,
2013-03-23 23:06:00,33.1,2.0,30.20,SW,229,0.0,0.0,26,0.00,,CLR,0.00,0.00,VWS V14.01,2013-03-24 06:06:00,
2013-03-23 23:11:00,32.8,2.5,30.20,SW,229,0.0,0.0,27,0.00,,CLR,0.00,0.00,VWS V14.01,2013-03-24 06:11:00,
2013-03-23 23:16:00,32.6,2.3,30.20,ENE,64,1.0,3.0,27,0.00,,CLR,0.00,0.00,VWS V14.01,2013-03-24 06:16:00,
2013-03-23 23:21:00,31.8,1.6,30.20,ENE,63,1.0,2.0,27,0.00,,CLR,0.00,0.00,VWS V14.01,2013-03-24 06:21:00,
2013-03-23 23:26:00,32.1,2.7,30.20,ENE,62,2.0,3.0,28,0.00,,CLR,0.00,0.00,VWS V14.01,2013-03-24 06:26:00,
2013-03-23 23:31:00,32.0,3.3,30.20,ENE,62,0.0,1.0,29,0.00,,CLR,0.00,0.00,VWS V14.01,2013-03-24 06:31:00,
2013-03-23 23:36:00,32.0,4.8,30.20,ENE,62,0.0,0.0,31,0.00,,CLR,0.00,0.00,VWS V14.01,2013-03-24 06:36:00,
2013-03-23 23:41:00,32.0,4.8,30.21,ENE,62,0.0,0.0,31,0.00,,CLR,0.00,0.00,VWS V14.01,2013-03-24 06:41:00,
2013-03-23 23:46:00,31.5,3.7,30.21,ENE,62,0.0,1.0,30,0.00,,CLR,0.00,0.00,VWS V14.01,2013-03-24 06:46:00,
2013-03-23 23:51:00,31.3,4.2,30.21,ENE,62,1.0,2.0,31,0.00,,CLR,0.00,0.00,VWS V14.01,2013-03-24 06:51:00,
2013-03-23 23:56:00,31.2,3.4,30.21,NE,49,1.0,3.0,30,0.00,,CLR,0.00,0.00,VWS V14.01,2013-03-24 06:56:00,